Cosmos 1809 Rocket - Orbit

View from above orbital plane
View from above orbital plane
View from above satellite
View from above satellite

Ground track
Ground track

The orbit data is extracted from the following two-line orbital elements,

1 17242U 86101B   13145.15924041  .00000046  00000-0  28410-4 0   644
2 17242 082.5297 122.5605 0014021 242.8486 245.1108 13.83230329334560
Epoch (UTC): 25 May 2013 03:49:18
Eccentricity: 0.0014021
inclination: 82.5297°
perigee height: 942 km
apogee height: 963 km
right ascension of ascending node: 122.5605°
argument of perigee: 242.8486°
revolutions per day: 13.83230329
mean anomaly at epoch: 245.1108°
orbit number at epoch: 33456

The dashed part of the orbit path shows where the satellite is in the earth's shadow,  

Developed and maintained by Chris Peat, Heavens-Above GmbH. Please read the updated FAQ before sending e-mail. Imprint. DLR